Flight Track Log - Related Links

Times and Time Zones

All times are in EDT time to prevent confusion due to time zone crossing. See the AAL963 flight status page for this flight to view local times or setup timezone preferences in your user account.

Time Position Orientation Groundspeed Altitude Reporting Facility
EDT Latitude Longitude Course Direction KTS MPH feet Rate Location/Type
Sat 21:02:18 32.8400 -97.0240 165° South 208 239 2,300  Level FlightAware ADS-B
Sat 21:02:53 32.8040 -97.0130 166° South 244 281 2,900 1,400 Climbing FlightAware ADS-B
Sat 21:03:18 32.7750 -97.0040 165° South 255 293 3,700 1,964 Climbing FlightAware ADS-B
Sat 21:03:48 32.7430 -96.9920 162° South 259 298 4,700 2,280 Climbing FlightAware ADS-B
Sat 21:04:08 32.7160 -96.9810 161° South 259 298 5,600 2,400 Climbing FlightAware ADS-B
Sat 21:04:43 32.6790 -96.9670 162° South 263 303 6,900 2,031 Climbing FlightAware ADS-B
Sat 21:05:13 32.6400 -96.9530 163° South 277 319 7,800 1,745 Climbing FlightAware ADS-B
Sat 21:05:38 32.6080 -96.9400 161° South 284 327 8,500 1,837 Climbing FlightAware ADS-B
Sat 21:06:02 32.5780 -96.9280 161° South 289 333 9,300 1,846 Climbing FlightAware ADS-B
Sat 21:06:43 32.5280 -96.9090 162° South 299 344 10,500 933 Climbing FlightAware ADS-B
Sat 21:07:32 32.4680 -96.8860 162° South 308 354 10,700 140 Climbing FlightAware ADS-B
Sat 21:08:09 32.4250 -96.8700 163° South 308 354 10,700 1,797 Level FlightAware ADS-B
Sat 21:10:49 32.1095 -96.7491 162° South 413 475 16,600 2,136 Climbing FlightAware ADS-B
Sat 21:11:20 32.0538 -96.7276 162° South 419 482 17,500 1,727 Climbing FlightAware ADS-B
Sat 21:11:55 31.9890 -96.7027 162° South 424 488 18,500 1,606 Climbing FlightAware ADS-B
Sat 21:12:31 31.9213 -96.6771 162° South 434 499 19,400 1,455 Climbing FlightAware ADS-B
Sat 21:13:01 31.8634 -96.6552 162° South 441 507 20,100 1,452 Climbing FlightAware ADS-B
Sat 21:13:33 31.8013 -96.6296 161° South 448 516 20,900 1,561 Climbing FlightAware ADS-B
Sat 21:15:04 31.6199 -96.5549 161° South 456 525 23,300 1,561 Climbing FlightAware ADS-B
Sat 21:15:36 31.5549 -96.5286 161° South 460 529 24,100 1,238 Climbing FlightAware ADS-B
Sat 21:16:07 31.4924 -96.5035 161° South 466 536 24,600 1,085 Climbing FlightAware ADS-B
Sat 21:17:10 31.3619 -96.4553 163° South 476 548 25,800 1,226 Climbing FlightAware ADS-B
Sat 21:17:40 31.2985 -96.4318 162° South 479 551 26,500 1,377 Climbing FlightAware ADS-B
Sat 21:18:11 31.2330 -96.4073 162° South 479 551 27,200 1,200 Climbing FlightAware ADS-B
Sat 21:18:25 31.2029 -96.3944 157° South 484 557 27,400 1,091 Climbing FlightAware ADS-B
Sat 21:18:33 31.1864 -96.3843 152° Southeast 487 560 27,600 1,125 Climbing FlightAware ADS-B
Sat 21:18:41 31.1714 -96.3730 147° Southeast 489 563 27,700 1,226 Climbing FlightAware ADS-B
Sat 21:20:06 31.0510 -96.1972 126° Southeast 493 567 29,500 1,200 Climbing FlightAware ADS-B
Sat 21:20:36 31.0112 -96.1318 125° Southeast 496 571 30,000 900 Climbing FlightAware ADS-B
Sat 21:21:06 30.9704 -96.0654 126° Southeast 499 574 30,400 659 Climbing FlightAware ADS-B
Sat 21:22:07 30.8879 -95.9318 126° Southeast 500 575 31,000 387 Climbing FlightAware ADS-B
Sat 21:22:39 30.8456 -95.8636 126° Southeast 500 575 31,000 49 Level FlightAware ADS-B
Sat 21:24:10 30.7218 -95.6649 126° Southeast 501 577 31,100 344 Climbing FlightAware ADS-B
Sat 21:24:41 30.6804 -95.5984 126° Southeast 501 577 31,700 1,065 Climbing FlightAware ADS-B
Sat 21:25:12 30.6380 -95.5306 126° Southeast 498 573 32,200 363 Climbing FlightAware ADS-B
Sat 21:28:16 30.3915 -95.1384 126° Southeast 488 562 33,000 195 Climbing FlightAware ADS-B
Sat 21:29:18 30.3088 -95.0077 126° Southeast 488 562 33,000  Level FlightAware ADS-B
Sat 21:29:48 30.2687 -94.9444 126° Southeast 488 562 33,000  Level FlightAware ADS-B
Sat 21:30:18 30.2281 -94.8806 126° Southeast 491 565 33,000  Level FlightAware ADS-B
Sat 21:31:20 30.1454 -94.7507 126° Southeast 495 570 33,000  Level FlightAware ADS-B
Sat 21:31:50 30.1042 -94.6861 126° Southeast 498 573 33,000  Level FlightAware ADS-B
Sat 21:32:20 30.0631 -94.6219 126° Southeast 499 574 33,000  Level FlightAware ADS-B
Sat 21:33:20 29.9804 -94.4928 126° Southeast 501 577 33,000  Level FlightAware ADS-B
Sat 21:33:51 29.9380 -94.4269 127° Southeast 502 578 33,000  Level FlightAware ADS-B
Sat 21:34:21 29.8964 -94.3620 126° Southeast 503 579 33,000  Level FlightAware ADS-B
Sat 21:36:40 29.7009 -94.0627 129° Southeast 508 585 33,000  Level FlightAware ADS-B
Sat 21:38:39 29.4836 -93.8638 144° Southeast 507 583 33,000  Level FlightAware ADS-B
Sat 21:39:09 29.4261 -93.8150 144° Southeast 507 583 33,000  Level FlightAware ADS-B
Sat 21:39:42 29.3643 -93.7626 144° Southeast 507 583 33,000  Level FlightAware ADS-B
Sat 21:40:12 29.3069 -93.7139 144° Southeast 505 581 33,000  Level FlightAware ADS-B
Sat 21:40:44 29.2473 -93.6633 143° Southeast 504 580 33,000  Level FlightAware ADS-B
Sat 21:41:15 29.1898 -93.6146 144° Southeast 503 579 33,000  Level FlightAware ADS-B
Sat 21:41:46 29.1327 -93.5662 143° Southeast 504 580 33,000  Level FlightAware ADS-B
Sat 21:42:17 29.0738 -93.5164 144° Southeast 502 578 33,000  Level FlightAware ADS-B
Sat 21:42:48 29.0153 -93.4670 144° Southeast 499 574 33,000  Level FlightAware ADS-B
Sat 21:43:19 28.9587 -93.4192 144° Southeast 497 572 33,000  Level FlightAware ADS-B
Sat 21:43:50 28.9023 -93.3717 144° Southeast 495 570 33,000  Level FlightAware ADS-B
Sat 21:44:10 28.8719 -93.3439 144° Southeast 495 570 33,000 -74 Level Houston Center
Sat 21:45:11 28.7617 -93.2528 144° Southeast 492 566 32,900  Descending Houston Center
Sat 21:46:12 28.6514 -93.1594 143° Southeast 494 568 33,000 49 Climbing Houston Center
Sat 21:47:13 28.5400 -93.0678 144° Southeast 494 568 33,000  Level Houston Center
Sat 21:48:14 28.4303 -92.9742 143° Southeast 494 568 33,000 -50 Level Houston Center
Sat 21:49:14 28.3194 -92.8833 144° Southeast 494 568 32,900  Descending Houston Center
Sat 21:50:15 28.2075 -92.7917 144° Southeast 494 568 33,000  Climbing Houston Center
Sat 21:51:16 28.0978 -92.6981 143° Southeast 494 568 32,900 -49 Descending Houston Center
Sat 21:52:17 27.9869 -92.6078 144° Southeast 492 566 32,900  Level Houston Center
Sat 21:53:17 27.8764 -92.5175 144° Southeast 491 565 32,900  Level Houston Center
Sat 21:54:18 27.7650 -92.4292 145° Southeast 489 563 32,900  Level Houston Center
Sat 21:55:19 27.6558 -92.3394 144° Southeast 488 562 32,900  Level Houston Center
Sat 21:56:20 27.5461 -92.2494 144° Southeast 487 560 32,900 49 Level Houston Center
Sat 21:57:21 27.4139 -92.1422 144° Southeast 486 559 33,000  Climbing Houston Center
Sat 21:58:21 27.3033 -92.0539 145° Southeast 488 562 32,900  Descending Houston Center
Sat 21:59:22 27.1933 -91.9639 144° Southeast 488 562 33,000 49 Climbing Houston Center
Sat 22:00:23 27.0828 -91.8761 145° Southeast 487 560 33,000 -49 Level Houston Center
Sat 22:01:24 26.9639 -91.7794 144° Southeast 487 560 32,900 13 Descending Houston Center
Sat 22:03:00 26.7914 -91.6394 144° Southeast  Level FlightAware Approximate
Sat 22:10:00 26.0337 -91.0344 145° Southeast  Level FlightAware Approximate
Sat 22:11:00 25.9249 -90.9491 145° Southeast  Level FlightAware Approximate
Sat 22:12:00 25.8161 -90.8640 145° Southeast  Level FlightAware Approximate
Sat 22:13:00 25.7072 -90.7791 145° Southeast  Level FlightAware Approximate
Sat 22:14:00 25.5982 -90.6943 145° Southeast  Level FlightAware Approximate
Sat 22:15:00 25.4893 -90.6096 145° Southeast  Level FlightAware Approximate
Sat 22:16:00 25.3802 -90.5251 145° Southeast  Level FlightAware Approximate
Sat 22:17:00 25.2711 -90.4408 145° Southeast  Level FlightAware Approximate
Sat 22:18:00 25.1620 -90.3566 145° Southeast  Level FlightAware Approximate
Sat 22:19:00 25.0528 -90.2726 145° Southeast  Level FlightAware Approximate
Sat 22:20:00 24.9436 -90.1887 145° Southeast  Level FlightAware Approximate
Sat 22:21:00 24.8343 -90.1050 145° Southeast  Level FlightAware Approximate
Sat 22:22:00 24.7250 -90.0214 145° Southeast  Level FlightAware Approximate
Sat 22:23:00 24.6156 -89.9380 145° Southeast  Level FlightAware Approximate
Sat 22:24:00 24.5062 -89.8547 145° Southeast  Level FlightAware Approximate
Sat 22:25:00 24.3976 -89.7705 146° Southeast  Level FlightAware Approximate
Sat 22:26:00 24.2885 -89.6906 146° Southeast  Level FlightAware Approximate
Sat 22:27:00 24.1793 -89.6108 146° Southeast  Level FlightAware Approximate
Sat 22:28:00 24.0700 -89.5312 146° Southeast  Level FlightAware Approximate
Sat 22:29:00 23.9627 -89.4486 145° Southeast  Level FlightAware Approximate
Sat 22:30:00 23.8557 -89.3654 145° Southeast  Level FlightAware Approximate
Sat 22:31:00 23.7488 -89.2824 146° Southeast  Level FlightAware Approximate
Sat 22:32:00 23.6404 -89.2016 146° Southeast  Level FlightAware Approximate
Sat 22:33:00 23.5320 -89.1209 146° Southeast  Level FlightAware Approximate
Sat 22:34:00 23.4236 -89.0403 146° Southeast  Level FlightAware Approximate
Sat 22:35:00 23.3151 -88.9598 146° Southeast  Level FlightAware Approximate
Sat 22:36:00 23.2066 -88.8795 146° Southeast  Level FlightAware Approximate
Sat 22:37:00 23.0988 -88.7983 145° Southeast  Level FlightAware Approximate
Sat 22:38:00 22.9913 -88.7166 145° Southeast  Level FlightAware Approximate
Sat 22:39:00 22.8837 -88.6349 145° Southeast  Level FlightAware Approximate
Sat 22:40:00 22.7761 -88.5535 145° Southeast  Level FlightAware Approximate
Sat 22:41:00 22.6700 -88.4700 137° Southeast  Level FlightAware Approximate
Sat 22:42:00 22.5734 -88.3738 137° Southeast  Level FlightAware Approximate
Sat 22:43:00 22.4768 -88.2777 137° Southeast  Level FlightAware Approximate
Sat 22:44:00 22.3801 -88.1818 137° Southeast  Level FlightAware Approximate
Sat 22:45:00 22.2833 -88.0860 137° Southeast  Level FlightAware Approximate
Sat 22:46:00 22.1865 -87.9903 138° Southeast  Level FlightAware Approximate
Sat 22:47:00 22.0896 -87.8948 138° Southeast  Level FlightAware Approximate
Sat 22:48:00 21.9927 -87.7993 138° Southeast  Level FlightAware Approximate
Sat 22:49:00 21.8957 -87.7040 138° Southeast  Level FlightAware Approximate
Sat 22:50:00 21.7987 -87.6089 138° Southeast  Level FlightAware Approximate
Sat 22:51:00 21.7016 -87.5139 138° Southeast  Level FlightAware Approximate
Sat 22:52:00 21.6045 -87.4190 138° Southeast  Level FlightAware Approximate
Sat 22:53:00 21.5073 -87.3242 138° Southeast  Level FlightAware Approximate
Sat 22:54:00 21.4099 -87.2297 138° Southeast  Level FlightAware Approximate
Sat 22:55:00 21.3125 -87.1354 138° Southeast  Level FlightAware Approximate
Sat 22:56:00 21.2150 -87.0411 138° Southeast  Level FlightAware Approximate
Sat 22:57:00 21.1174 -86.9470 138° Southeast  Level FlightAware Approximate
Sat 22:58:00 21.0198 -86.8530 138° Southeast  Level FlightAware Approximate
Sat 22:59:00 20.9228 -86.7585 138° Southeast  Level FlightAware Approximate
Sat 23:00:00 20.8257 -86.6640 138° Southeast  Level FlightAware Approximate
Sat 23:01:00 20.7285 -86.5696 138° Southeast  Level FlightAware Approximate
Sat 23:02:00 20.6314 -86.4754 138° Southeast  Level FlightAware Approximate
Sat 23:03:00 20.5341 -86.3813 138° Southeast  Level FlightAware Approximate
Sat 23:04:00 20.4368 -86.2873 138° Southeast  Level FlightAware Approximate
Sat 23:05:00 20.3395 -86.1935 138° Southeast  Level FlightAware Approximate
Sat 23:06:00 20.2421 -86.0997 138° Southeast  Level FlightAware Approximate
Sat 23:07:00 20.1447 -86.0061 138° Southeast  Level FlightAware Approximate
Sat 23:08:00 20.0472 -85.9126 138° Southeast  Level FlightAware Approximate
Sat 23:09:00 19.9493 -85.8196 138° Southeast  Level FlightAware Approximate
Sat 23:10:00 19.8511 -85.7270 138° Southeast  Level FlightAware Approximate
Sat 23:11:00 19.7529 -85.6345 138° Southeast  Level FlightAware Approximate
Sat 23:12:00 19.6547 -85.5422 138° Southeast  Level FlightAware Approximate
Sat 23:13:00 19.5564 -85.4499 139° Southeast  Level FlightAware Approximate
Sat 23:14:00 19.4580 -85.3577 139° Southeast  Level FlightAware Approximate
Sat 23:15:00 19.3596 -85.2657 139° Southeast  Level FlightAware Approximate
Sat 23:16:00 19.2612 -85.1738 139° Southeast  Level FlightAware Approximate
Sat 23:17:00 19.1627 -85.0820 139° Southeast  Level FlightAware Approximate
Sat 23:18:00 19.0642 -84.9902 139° Southeast  Level FlightAware Approximate
Sat 23:19:00 18.9656 -84.8987 139° Southeast  Level FlightAware Approximate
Sat 23:20:00 18.8670 -84.8072 139° Southeast  Level FlightAware Approximate
Sat 23:21:00 18.7683 -84.7158 139° Southeast  Level FlightAware Approximate
Sat 23:22:00 18.6696 -84.6245 139° Southeast  Level FlightAware Approximate
Sat 23:23:00 18.5709 -84.5333 139° Southeast  Level FlightAware Approximate
Sat 23:24:00 18.4841 -84.4312 123° Southeast  Level FlightAware Approximate
Sat 23:25:00 18.4112 -84.3162 125° Southeast  Level FlightAware Approximate
Sat 23:26:00 18.3365 -84.2025 125° Southeast  Level FlightAware Approximate
Sat 23:27:00 18.2619 -84.0889 125° Southeast  Level FlightAware Approximate
Sat 23:28:00 18.1871 -83.9753 125° Southeast  Level FlightAware Approximate
Sat 23:29:00 18.1123 -83.8619 125° Southeast  Level FlightAware Approximate
Sat 23:30:00 18.0374 -83.7486 125° Southeast  Level FlightAware Approximate
Sat 23:31:00 17.9624 -83.6354 125° Southeast  Level FlightAware Approximate
Sat 23:32:00 17.8719 -83.5360 135° Southeast  Level FlightAware Approximate
Sat 23:33:00 17.7783 -83.4394 136° Southeast  Level FlightAware Approximate
Sat 23:34:00 17.6846 -83.3430 136° Southeast  Level FlightAware Approximate
Sat 23:35:00 17.5909 -83.2466 136° Southeast  Level FlightAware Approximate
Sat 23:36:00 17.4971 -83.1503 136° Southeast  Level FlightAware Approximate
Sat 23:37:00 17.4033 -83.0542 136° Southeast  Level FlightAware Approximate
Sat 23:38:00 17.3064 -82.9615 139° Southeast  Level FlightAware Approximate
Sat 23:39:00 17.2075 -82.8712 139° Southeast  Level FlightAware Approximate
Sat 23:40:00 17.1086 -82.7810 139° Southeast  Level FlightAware Approximate
Sat 23:41:00 17.0097 -82.6908 139° Southeast  Level FlightAware Approximate
Sat 23:42:00 16.9107 -82.6008 139° Southeast  Level FlightAware Approximate
Sat 23:43:00 16.8117 -82.5108 139° Southeast  Level FlightAware Approximate
Sat 23:44:00 16.7126 -82.4210 139° Southeast  Level FlightAware Approximate
Sat 23:45:00 16.6135 -82.3312 139° Southeast  Level FlightAware Approximate
Sat 23:46:00 16.5144 -82.2415 139° Southeast  Level FlightAware Approximate
Sat 23:47:00 16.4179 -82.1489 134° Southeast  Level FlightAware Approximate
Sat 23:48:00 16.3265 -82.0508 134° Southeast  Level FlightAware Approximate
Sat 23:49:00 16.2350 -81.9528 134° Southeast  Level FlightAware Approximate
Sat 23:50:00 16.1435 -81.8549 134° Southeast  Level FlightAware Approximate
Sat 23:51:00 16.0520 -81.7571 134° Southeast  Level FlightAware Approximate
Sat 23:52:00 15.9604 -81.6593 134° Southeast  Level FlightAware Approximate
Sat 23:53:00 15.8687 -81.5617 134° Southeast  Level FlightAware Approximate
Sat 23:54:00 15.7770 -81.4641 134° Southeast  Level FlightAware Approximate
Sat 23:55:00 15.6858 -81.3661 133° Southeast  Level FlightAware Approximate
Sat 23:56:00 15.5957 -81.2672 133° Southeast  Level FlightAware Approximate
Sat 23:57:00 15.5055 -81.1683 133° Southeast  Level FlightAware Approximate
Sat 23:58:00 15.4152 -81.0695 133° Southeast  Level FlightAware Approximate
Sat 23:59:00 15.3249 -80.9707 133° Southeast  Level FlightAware Approximate
Sun 00:00:00 15.2345 -80.8721 134° Southeast  Level FlightAware Approximate
Sun 00:01:00 15.1441 -80.7735 134° Southeast  Level FlightAware Approximate
Sun 00:02:00 15.0537 -80.6751 134° Southeast  Level FlightAware Approximate
Sun 00:03:00 14.9580 -80.5827 142° Southeast  Level FlightAware Approximate
Sun 00:04:00 14.8546 -80.4991 142° Southeast  Level FlightAware Approximate
Sun 00:05:00 14.7512 -80.4156 142° Southeast  Level FlightAware Approximate
Sun 00:06:00 14.6477 -80.3321 142° Southeast  Level FlightAware Approximate
Sun 00:07:00 14.5442 -80.2488 142° Southeast  Level FlightAware Approximate
Sun 00:08:00 14.4407 -80.1655 142° Southeast  Level FlightAware Approximate
Sun 00:09:00 14.3371 -80.0823 142° Southeast  Level FlightAware Approximate
Sun 00:10:00 14.2336 -79.9992 142° Southeast  Level FlightAware Approximate
Sun 00:11:00 14.1299 -79.9162 142° Southeast  Level FlightAware Approximate
Sun 00:12:00 14.0263 -79.8332 142° Southeast  Level FlightAware Approximate
Sun 00:13:00 13.9226 -79.7503 142° Southeast  Level FlightAware Approximate
Sun 00:14:00 13.8189 -79.6675 142° Southeast  Level FlightAware Approximate
Sun 00:15:00 13.7152 -79.5848 142° Southeast  Level FlightAware Approximate
Sun 00:16:00 13.6115 -79.5021 142° Southeast  Level FlightAware Approximate
Sun 00:17:00 13.5077 -79.4195 142° Southeast  Level FlightAware Approximate
Sun 00:18:00 13.4039 -79.3370 142° Southeast  Level FlightAware Approximate
Sun 00:19:00 13.3001 -79.2545 142° Southeast  Level FlightAware Approximate
Sun 00:20:00 13.1962 -79.1722 142° Southeast  Level FlightAware Approximate
Sun 00:21:00 13.0923 -79.0899 142° Southeast  Level FlightAware Approximate
Sun 00:22:00 12.9884 -79.0076 142° Southeast  Level FlightAware Approximate
Sun 00:23:00 12.8845 -78.9255 142° Southeast  Level FlightAware Approximate
Sun 00:24:00 12.7805 -78.8433 142° Southeast  Level FlightAware Approximate
Sun 00:25:00 12.6765 -78.7613 142° Southeast  Level FlightAware Approximate
Sun 00:26:00 12.5727 -78.6791 142° Southeast  Level FlightAware Approximate
Sun 00:27:00 12.4688 -78.5970 142° Southeast  Level FlightAware Approximate
Sun 00:28:00 12.3649 -78.5149 142° Southeast  Level FlightAware Approximate
Sun 00:29:00 12.2610 -78.4329 142° Southeast  Level FlightAware Approximate
Sun 00:30:00 12.1570 -78.3510 142° Southeast  Level FlightAware Approximate
Sun 00:31:00 12.0531 -78.2691 142° Southeast  Level FlightAware Approximate
Sun 00:32:00 11.9491 -78.1874 142° Southeast  Level FlightAware Approximate
Sun 00:32:10 10.9670 -77.4220 142° Southeast 484 557 35,000  Level FlightAware ADS-B
Sun 00:32:50 10.8980 -77.3610 139° Southeast 483 556 35,000  Level FlightAware ADS-B
Sun 00:33:00 11.8450 -78.1056 142° Southeast  Level FlightAware Approximate
Sun 00:33:35 10.8230 -77.2900 137° Southeast 487 560 35,000  Level FlightAware ADS-B
Sun 00:34:17 10.7630 -77.2340 137° Southeast 487 560 35,000  Level FlightAware ADS-B
Sun 00:35:02 10.6920 -77.1670 137° Southeast 487 560 35,000  Level FlightAware ADS-B
Sun 00:35:42 10.6240 -77.1030 137° Southeast 486 559 35,000  Level FlightAware ADS-B
Sun 00:36:25 10.5440 -77.0300 138° Southeast 486 559 35,000  Level FlightAware ADS-B
Sun 00:37:00 10.4820 -76.9730 138° Southeast 481 554 35,000  Level FlightAware ADS-B
Sun 00:37:41 10.4160 -76.9110 137° Southeast 486 559 35,000  Level FlightAware ADS-B
Sun 00:38:26 10.3430 -76.8430 137° Southeast 482 555 35,000  Level FlightAware ADS-B
Sun 00:39:11 10.2660 -76.7720 138° Southeast 480 552 35,000  Level FlightAware ADS-B
Sun 00:39:51 10.2000 -76.7100 137° Southeast 479 551 35,000  Level FlightAware ADS-B
Sun 00:40:33 10.1370 -76.6520 138° Southeast 479 551 35,000  Level FlightAware ADS-B
Sun 00:41:17 10.0590 -76.5790 137° Southeast 481 554 35,000  Level FlightAware ADS-B
Sun 00:41:57 9.9940 -76.5190 138° Southeast 482 555 35,000  Level FlightAware ADS-B
Sun 00:42:38 9.9250 -76.4550 138° Southeast 483 556 35,000  Level FlightAware ADS-B
Sun 00:43:23 9.8500 -76.3860 138° Southeast 485 558 35,000  Level FlightAware ADS-B
Sun 00:44:19 9.7600 -76.3030 138° Southeast 484 557 35,000  Level FlightAware ADS-B
Sun 00:45:00 9.6930 -76.2410 138° Southeast 482 555 35,000  Level FlightAware ADS-B
Sun 00:45:41 9.6340 -76.1860 137° Southeast 482 555 35,000  Level FlightAware ADS-B
Sun 00:46:18 9.5830 -76.1370 137° Southeast 482 555 35,000  Level FlightAware ADS-B
Sun 00:47:06 9.5160 -76.0740 137° Southeast 482 555 35,000  Level FlightAware ADS-B
Sun 00:47:42 9.4660 -76.0270 137° Southeast 482 555 35,000  Level FlightAware ADS-B
Sun 00:48:30 9.4000 -75.9640 137° Southeast 482 555 35,000  Level FlightAware ADS-B
Sun 00:49:06 9.3500 -75.9170 137° Southeast 482 555 35,000  Level FlightAware ADS-B
Sun 00:49:54 9.2830 -75.8540 137° Southeast 482 555 35,000  Level FlightAware ADS-B
Sun 00:50:20 9.1500 -75.8030 159° South 35,000  Level FlightAware ADS-B
Sun 00:51:32 9.0090 -75.7520 160° South 475 547 35,000  Level FlightAware ADS-B
Sun 00:52:14 8.9010 -75.7190 163° South 478 550 35,000  Level FlightAware ADS-B
Sun 00:52:54 8.8130 -75.6940 164° South 478 550 35,000  Level FlightAware ADS-B
Sun 00:53:34 8.7280 -75.6690 164° South 478 550 35,000  Level FlightAware ADS-B
Sun 00:54:19 8.6330 -75.6430 165° South 478 550 35,000  Level FlightAware ADS-B
Sun 00:55:00 8.5440 -75.6180 164° South 478 550 35,000  Level FlightAware ADS-B
Sun 00:55:55 8.4420 -75.5900 165° South 478 550 35,000  Level FlightAware ADS-B
Sun 00:56:43 8.3550 -75.5640 164° South 478 550 35,000  Level FlightAware ADS-B
Sun 00:57:19 8.2900 -75.5460 165° South 478 550 35,000  Level FlightAware ADS-B
Sun 00:58:07 8.2040 -75.5200 163° South 478 550 35,000  Level FlightAware ADS-B
Sun 00:58:43 8.1390 -75.5020 165° South 478 550 35,000  Level FlightAware ADS-B
Sun 00:59:32 8.0500 -75.4760 164° South 478 550 35,000  Level FlightAware ADS-B
Sun 01:00:10 7.9810 -75.4560 164° South 478 550 35,000  Level FlightAware ADS-B
Sun 01:00:46 7.9160 -75.4370 164° South 478 550 35,000  Level FlightAware ADS-B
Sun 01:01:34 7.8300 -75.4120 164° South 478 550 35,000  Level FlightAware ADS-B
Sun 01:02:10 7.7650 -75.3930 164° South 478 550 35,000  Level FlightAware ADS-B
Sun 01:02:58 7.6780 -75.3680 164° South 478 550 35,000  Level FlightAware ADS-B
Sun 01:03:34 7.6130 -75.3490 164° South 478 550 35,000  Level FlightAware ADS-B
Sun 01:04:22 7.5260 -75.3240 164° South 478 550 35,000  Level FlightAware ADS-B
Sun 01:04:58 7.4610 -75.3050 164° South 478 550 35,000 15 Level FlightAware ADS-B
Sun 01:07:00 7.2614 -75.1265 138° Southeast  Level Estimated
Sun 01:08:00 7.1632 -75.0387 138° Southeast  Level Estimated
Sun 01:09:00 7.0650 -74.9510 138° Southeast  Level Estimated
Sun 01:10:00 6.9668 -74.8634 138° Southeast  Level Estimated
Sun 01:11:00 6.8686 -74.7757 138° Southeast  Level Estimated
Sun 01:12:00 6.7703 -74.6882 138° Southeast  Level Estimated
Sun 01:13:00 6.6721 -74.6006 138° Southeast  Level Estimated
Sun 01:14:00 6.5738 -74.5131 139° Southeast  Level Estimated
Sun 01:15:00 6.4755 -74.4256 139° Southeast  Level Estimated
Sun 01:16:00 6.3772 -74.3382 139° Southeast  Level Estimated
Sun 01:17:00 6.2789 -74.2507 139° Southeast  Level Estimated
Sun 01:18:00 6.1805 -74.1634 139° Southeast  Level Estimated
Sun 01:19:00 6.0822 -74.0760 139° Southeast  Level Estimated
Sun 01:20:00 5.9838 -73.9887 139° Southeast  Level Estimated
Sun 01:21:00 5.8854 -73.9014 139° Southeast  Level Estimated
Sun 01:22:00 5.7870 -73.8141 139° Southeast  Level Estimated
Sun 01:23:00 5.6886 -73.7269 139° Southeast  Level Estimated
Sun 01:24:00 5.5902 -73.6397 139° Southeast  Level Estimated
Sun 01:25:00 5.4918 -73.5525 139° Southeast  Level Estimated
Sun 01:26:00 5.3933 -73.4654 139° Southeast  Level Estimated
Sun 01:27:00 5.2949 -73.3783 139° Southeast  Level Estimated
Sun 01:28:00 5.1964 -73.2912 139° Southeast  Level Estimated
Sun 01:29:00 5.0979 -73.2042 139° Southeast  Level Estimated
Sun 01:30:00 4.9994 -73.1171 139° Southeast  Level Estimated
Sun 01:31:00 4.9009 -73.0301 139° Southeast  Level Estimated
Sun 01:32:00 4.8024 -72.9432 139° Southeast  Level Estimated
Sun 01:33:00 4.7038 -72.8562 139° Southeast  Level Estimated
Sun 01:34:00 4.6053 -72.7693 139° Southeast  Level Estimated
Sun 01:35:00 4.5068 -72.6824 139° Southeast  Level Estimated
Sun 01:36:00 4.4082 -72.5955 139° Southeast  Level Estimated
Sun 01:37:00 4.3096 -72.5086 139° Southeast  Level Estimated
Sun 01:38:00 4.2111 -72.4218 139° Southeast  Level Estimated
Sun 01:39:00 4.1125 -72.3350 139° Southeast  Level Estimated
Sun 01:40:00 4.0139 -72.2482 139° Southeast  Level Estimated
Sun 01:41:00 3.9153 -72.1614 139° Southeast  Level Estimated
Sun 01:42:00 3.8166 -72.0747 139° Southeast  Level Estimated
Sun 01:43:00 3.7180 -71.9880 139° Southeast  Level Estimated
Sun 01:44:00 3.6194 -71.9012 139° Southeast  Level Estimated
Sun 01:45:00 3.5207 -71.8146 139° Southeast  Level Estimated
Sun 01:46:00 3.4221 -71.7279 139° Southeast  Level Estimated
Sun 01:47:00 3.3234 -71.6412 139° Southeast  Level Estimated
Sun 01:48:00 3.2248 -71.5546 139° Southeast  Level Estimated
Sun 01:49:00 3.1261 -71.4680 139° Southeast  Level Estimated
Sun 01:50:00 3.0274 -71.3814 139° Southeast  Level Estimated
Sun 01:51:00 2.9287 -71.2948 139° Southeast  Level Estimated
Sun 01:52:00 2.8300 -71.2082 139° Southeast  Level Estimated
Sun 01:53:00 2.7313 -71.1217 139° Southeast  Level Estimated
Sun 01:54:00 2.6326 -71.0351 139° Southeast  Level Estimated
Sun 01:55:00 2.5339 -70.9486 139° Southeast  Level Estimated
Sun 01:56:00 2.4352 -70.8621 139° Southeast  Level Estimated
Sun 01:57:00 2.3365 -70.7756 139° Southeast  Level Estimated
Sun 01:58:00 2.2377 -70.6891 139° Southeast  Level Estimated
Sun 01:59:00 2.1390 -70.6026 139° Southeast  Level Estimated
Sun 02:00:00 2.0403 -70.5161 139° Southeast  Level Estimated
Sun 02:01:00 1.9415 -70.4297 139° Southeast  Level Estimated
Sun 02:02:00 1.8428 -70.3432 139° Southeast  Level Estimated
Sun 02:03:00 1.7440 -70.2568 139° Southeast  Level Estimated
Sun 02:04:00 1.6453 -70.1703 139° Southeast  Level Estimated
Sun 02:05:00 1.5465 -70.0839 139° Southeast  Level Estimated
Sun 02:06:00 1.4477 -69.9975 139° Southeast  Level Estimated
Sun 02:07:00 1.3490 -69.9111 139° Southeast  Level Estimated
Sun 02:08:00 1.2502 -69.8247 139° Southeast  Level Estimated
Sun 02:09:00 1.1514 -69.7383 139° Southeast  Level Estimated
Sun 02:10:00 1.0526 -69.6519 139° Southeast  Level Estimated
Sun 02:11:00 0.9539 -69.5655 139° Southeast  Level Estimated
Sun 02:12:00 0.8551 -69.4792 139° Southeast  Level Estimated
Sun 02:13:00 0.7563 -69.3928 139° Southeast  Level Estimated
Sun 02:14:00 0.6575 -69.3064 139° Southeast  Level Estimated
Sun 02:15:00 0.5587 -69.2201 139° Southeast  Level Estimated
Sun 02:16:00 0.4606 -69.1343 139° Southeast  Level Estimated
Sun 02:17:00 0.3625 -69.0485 139° Southeast  Level Estimated
Sun 02:18:00 0.2644 -68.9628 139° Southeast  Level Estimated
Sun 02:19:00 0.1663 -68.8770 139° Southeast  Level Estimated
Sun 02:20:00 0.0682 -68.7913 139° Southeast  Level Estimated
Sun 02:21:00 -0.0299 -68.7055 139° Southeast  Level Estimated
Sun 02:22:00 -0.1280 -68.6198 139° Southeast  Level Estimated
Sun 02:23:00 -0.2261 -68.5340 139° Southeast  Level Estimated
Sun 02:24:00 -0.3242 -68.4483 139° Southeast  Level Estimated
Sun 02:25:00 -0.4223 -68.3625 139° Southeast  Level Estimated
Sun 02:26:00 -0.5204 -68.2768 139° Southeast  Level Estimated
Sun 02:27:00 -0.6185 -68.1910 139° Southeast  Level Estimated
Sun 02:28:00 -0.7166 -68.1053 139° Southeast  Level Estimated
Sun 02:29:00 -0.8146 -68.0195 139° Southeast  Level Estimated
Sun 02:30:00 -0.9127 -67.9337 139° Southeast  Level Estimated
Sun 02:31:00 -1.0108 -67.8479 139° Southeast  Level Estimated
Sun 02:32:00 -1.1089 -67.7622 139° Southeast  Level Estimated
Sun 02:33:00 -1.2070 -67.6764 139° Southeast  Level Estimated
Sun 02:34:00 -1.3051 -67.5906 139° Southeast  Level Estimated
Sun 02:35:00 -1.4032 -67.5048 139° Southeast  Level Estimated
Sun 02:36:00 -1.5013 -67.4190 139° Southeast  Level Estimated
Sun 02:37:00 -1.5993 -67.3332 139° Southeast  Level Estimated
Sun 02:38:00 -1.6974 -67.2473 139° Southeast  Level Estimated
Sun 02:39:00 -1.7955 -67.1615 139° Southeast  Level Estimated
Sun 02:40:00 -1.8935 -67.0757 139° Southeast  Level Estimated
Sun 02:41:00 -1.9916 -66.9898 139° Southeast  Level Estimated
Sun 02:42:00 -2.0896 -66.9040 139° Southeast  Level Estimated
Sun 02:43:00 -2.1877 -66.8181 139° Southeast  Level Estimated
Sun 02:44:00 -2.2856 -66.7324 139° Southeast  Level Estimated
Sun 02:45:00 -2.3834 -66.6466 139° Southeast  Level Estimated
Sun 02:46:00 -2.4813 -66.5609 139° Southeast  Level Estimated
Sun 02:47:00 -2.5791 -66.4751 139° Southeast  Level Estimated
Sun 02:48:00 -2.6770 -66.3893 139° Southeast  Level Estimated
Sun 02:49:00 -2.7748 -66.3035 139° Southeast  Level Estimated
Sun 02:50:00 -2.8727 -66.2177 139° Southeast  Level Estimated
Sun 02:51:00 -2.9705 -66.1319 139° Southeast  Level Estimated
Sun 02:52:00 -3.0683 -66.0460 139° Southeast  Level Estimated
Sun 02:53:00 -3.1662 -65.9602 139° Southeast  Level Estimated
Sun 02:54:00 -3.2640 -65.8743 139° Southeast  Level Estimated
Sun 02:55:00 -3.3618 -65.7884 139° Southeast  Level Estimated
Sun 02:56:00 -3.4596 -65.7025 139° Southeast  Level Estimated
Sun 02:57:00 -3.5573 -65.6166 139° Southeast  Level Estimated
Sun 02:58:00 -3.6551 -65.5306 139° Southeast  Level Estimated
Sun 02:59:00 -3.7529 -65.4447 139° Southeast  Level Estimated
Sun 03:00:00 -3.8507 -65.3587 139° Southeast  Level Estimated
Sun 03:01:00 -3.9484 -65.2727 139° Southeast  Level Estimated
Sun 03:02:00 -4.0462 -65.1867 139° Southeast  Level Estimated
Sun 03:03:00 -4.1439 -65.1006 139° Southeast  Level Estimated
Sun 03:04:00 -4.2416 -65.0146 139° Southeast  Level Estimated
Sun 03:05:00 -4.3394 -64.9285 139° Southeast  Level Estimated
Sun 03:06:00 -4.4371 -64.8424 139° Southeast  Level Estimated
Sun 03:07:00 -4.5348 -64.7563 139° Southeast  Level Estimated
Sun 03:08:00 -4.6325 -64.6701 139° Southeast  Level Estimated
Sun 03:09:00 -4.7301 -64.5839 139° Southeast  Level Estimated
Sun 03:10:00 -4.8278 -64.4977 139° Southeast  Level Estimated
Sun 03:11:00 -4.9255 -64.4115 139° Southeast  Level Estimated
Sun 03:12:00 -5.0231 -64.3253 139° Southeast  Level Estimated
Sun 03:13:00 -5.1207 -64.2390 139° Southeast  Level Estimated
Sun 03:14:00 -5.2184 -64.1527 139° Southeast  Level Estimated
Sun 03:15:00 -5.3160 -64.0664 139° Southeast  Level Estimated
Sun 03:16:00 -5.4136 -63.9800 139° Southeast  Level Estimated
Sun 03:17:00 -5.5112 -63.8936 139° Southeast  Level Estimated
Sun 03:18:00 -5.6087 -63.8072 139° Southeast  Level Estimated
Sun 03:19:00 -5.7063 -63.7208 139° Southeast  Level Estimated
Sun 03:20:00 -5.8039 -63.6343 139° Southeast  Level Estimated
Sun 03:21:00 -5.9014 -63.5478 139° Southeast  Level Estimated
Sun 03:22:00 -5.9989 -63.4613 139° Southeast  Level Estimated
Sun 03:23:00 -6.0964 -63.3747 139° Southeast  Level Estimated
Sun 03:24:00 -6.1939 -63.2881 139° Southeast  Level Estimated
Sun 03:25:00 -6.2914 -63.2015 139° Southeast  Level Estimated
Sun 03:26:00 -6.3889 -63.1148 139° Southeast  Level Estimated
Sun 03:27:00 -6.4863 -63.0281 139° Southeast  Level Estimated
Sun 03:28:00 -6.5837 -62.9414 139° Southeast  Level Estimated
Sun 03:29:00 -6.6812 -62.8546 139° Southeast  Level Estimated
Sun 03:30:00 -6.7786 -62.7678 138° Southeast  Level Estimated
Sun 03:31:00 -6.8760 -62.6810 138° Southeast  Level Estimated
Sun 03:32:00 -6.9735 -62.5940 138° Southeast  Level Estimated
Sun 03:33:00 -7.0711 -62.5070 138° Southeast  Level Estimated
Sun 03:34:00 -7.1686 -62.4199 138° Southeast  Level Estimated
Sun 03:35:00 -7.2661 -62.3327 138° Southeast  Level Estimated
Sun 03:36:00 -7.3635 -62.2456 138° Southeast  Level Estimated
Sun 03:37:00 -7.4610 -62.1584 138° Southeast  Level Estimated
Sun 03:38:00 -7.5585 -62.0711 138° Southeast  Level Estimated
Sun 03:39:00 -7.6559 -61.9838 138° Southeast  Level Estimated
Sun 03:40:00 -7.7533 -61.8965 138° Southeast  Level Estimated
Sun 03:41:00 -7.8507 -61.8092 138° Southeast  Level Estimated
Sun 03:42:00 -7.9481 -61.7218 138° Southeast  Level Estimated
Sun 03:43:00 -8.0454 -61.6343 138° Southeast  Level Estimated
Sun 03:44:00 -8.1428 -61.5468 138° Southeast  Level Estimated
Sun 03:45:00 -8.2401 -61.4593 138° Southeast  Level Estimated
Sun 03:46:00 -8.3374 -61.3717 138° Southeast  Level Estimated
Sun 03:47:00 -8.4347 -61.2841 138° Southeast  Level Estimated
Sun 03:48:00 -8.5317 -61.1966 138° Southeast  Level Estimated
Sun 03:49:00 -8.6288 -61.1091 138° Southeast  Level Estimated
Sun 03:50:00 -8.7259 -61.0215 138° Southeast  Level Estimated
Sun 03:51:00 -8.8229 -60.9338 138° Southeast  Level Estimated
Sun 03:52:00 -8.9199 -60.8461 138° Southeast  Level Estimated
Sun 03:53:00 -9.0169 -60.7584 138° Southeast  Level Estimated
Sun 03:54:00 -9.1139 -60.6706 138° Southeast  Level Estimated
Sun 03:55:00 -9.2108 -60.5828 138° Southeast  Level Estimated
Sun 03:56:00 -9.3077 -60.4949 138° Southeast  Level Estimated
Sun 03:57:00 -9.4047 -60.4070 138° Southeast  Level Estimated
Sun 03:58:00 -9.5015 -60.3190 138° Southeast  Level Estimated
Sun 03:59:00 -9.5984 -60.2310 138° Southeast  Level Estimated
Sun 04:00:00 -9.6952 -60.1429 138° Southeast  Level Estimated
Sun 04:01:00 -9.7921 -60.0548 138° Southeast  Level Estimated
Sun 04:02:00 -9.8889 -59.9666 138° Southeast  Level Estimated
Sun 04:03:00 -9.9856 -59.8784 138° Southeast  Level Estimated
Sun 04:04:00 -10.0824 -59.7901 138° Southeast  Level Estimated
Sun 04:05:00 -10.1791 -59.7018 138° Southeast  Level Estimated
Sun 04:06:00 -10.2758 -59.6134 138° Southeast  Level Estimated
Sun 04:07:00 -10.3725 -59.5249 138° Southeast  Level Estimated
Sun 04:08:00 -10.4693 -59.4363 138° Southeast  Level Estimated
Sun 04:09:00 -10.5661 -59.3476 138° Southeast  Level Estimated
Sun 04:10:00 -10.6629 -59.2588 138° Southeast  Level Estimated
Sun 04:11:00 -10.7597 -59.1700 138° Southeast  Level Estimated
Sun 04:12:00 -10.8564 -59.0811 138° Southeast  Level Estimated
Sun 04:13:00 -10.9531 -58.9922 138° Southeast  Level Estimated
Sun 04:14:00 -11.0498 -58.9032 138° Southeast  Level Estimated
Sun 04:15:00 -11.1464 -58.8142 138° Southeast  Level Estimated
Sun 04:16:00 -11.2430 -58.7250 138° Southeast  Level Estimated
Sun 04:17:00 -11.3396 -58.6359 138° Southeast  Level Estimated
Sun 04:18:00 -11.4362 -58.5466 138° Southeast  Level Estimated
Sun 04:19:00 -11.5327 -58.4574 138° Southeast  Level Estimated
Sun 04:20:00 -11.6292 -58.3680 138° Southeast  Level Estimated
Sun 04:21:00 -11.7257 -58.2786 138° Southeast  Level Estimated
Sun 04:22:00 -11.8222 -58.1891 138° Southeast  Level Estimated
Sun 04:23:00 -11.9186 -58.0996 138° Southeast  Level Estimated
Sun 04:24:00 -12.0150 -58.0100 138° Southeast  Level Estimated
Sun 04:25:00 -12.1114 -57.9203 138° Southeast  Level Estimated
Sun 04:26:00 -12.2077 -57.8306 138° Southeast  Level Estimated
Sun 04:27:00 -12.3040 -57.7408 138° Southeast  Level Estimated
Sun 04:28:00 -12.4003 -57.6509 138° Southeast  Level Estimated
Sun 04:29:00 -12.4966 -57.5610 138° Southeast  Level Estimated
Sun 04:30:00 -12.5928 -57.4710 138° Southeast  Level Estimated
Sun 04:31:00 -12.6890 -57.3809 138° Southeast  Level Estimated
Sun 04:32:00 -12.7852 -57.2908 138° Southeast  Level Estimated
Sun 04:33:00 -12.8813 -57.2006 138° Southeast  Level Estimated
Sun 04:34:00 -12.9774 -57.1103 138° Southeast  Level Estimated
Sun 04:35:00 -13.0735 -57.0200 138° Southeast  Level Estimated
Sun 04:36:00 -13.1695 -56.9296 137° Southeast  Level Estimated
Sun 04:37:00 -13.2655 -56.8391 137° Southeast  Level Estimated
Sun 04:38:00 -13.3615 -56.7485 137° Southeast  Level Estimated
Sun 04:39:00 -13.4575 -56.6579 137° Southeast  Level Estimated
Sun 04:40:00 -13.5534 -56.5672 137° Southeast  Level Estimated
Sun 04:41:00 -13.6493 -56.4764 137° Southeast  Level Estimated
Sun 04:42:00 -13.7451 -56.3856 137° Southeast  Level Estimated
Sun 04:43:00 -13.8409 -56.2947 137° Southeast  Level Estimated
Sun 04:44:00 -13.9367 -56.2037 137° Southeast  Level Estimated
Sun 04:45:00 -14.0325 -56.1126 137° Southeast  Level Estimated
Sun 04:46:00 -14.1282 -56.0215 137° Southeast  Level Estimated
Sun 04:47:00 -14.2239 -55.9302 137° Southeast  Level Estimated
Sun 04:48:00 -14.3195 -55.8390 137° Southeast  Level Estimated
Sun 04:49:00 -14.4151 -55.7476 137° Southeast  Level Estimated
Sun 04:50:00 -14.5107 -55.6561 137° Southeast  Level Estimated
Sun 04:51:00 -14.6062 -55.5646 137° Southeast  Level Estimated
Sun 04:52:00 -14.7017 -55.4730 137° Southeast  Level Estimated
Sun 04:53:00 -14.7972 -55.3813 137° Southeast  Level Estimated
Sun 04:54:00 -14.8926 -55.2895 137° Southeast  Level Estimated
Sun 04:55:00 -14.9880 -55.1976 137° Southeast  Level Estimated
Sun 04:56:00 -15.0834 -55.1057 137° Southeast  Level Estimated
Sun 04:57:00 -15.1787 -55.0137 137° Southeast  Level Estimated
Sun 04:58:00 -15.2740 -54.9216 137° Southeast  Level Estimated
Sun 04:59:00 -15.3692 -54.8294 137° Southeast  Level Estimated
Sun 05:00:00 -15.4644 -54.7371 137° Southeast  Level Estimated
Sun 05:01:00 -15.5596 -54.6448 137° Southeast  Level Estimated
Sun 05:02:00 -15.6547 -54.5523 137° Southeast  Level Estimated
Sun 05:03:00 -15.7498 -54.4598 137° Southeast  Level Estimated
Sun 05:04:00 -15.8449 -54.3672 137° Southeast  Level Estimated
Sun 05:05:00 -15.9399 -54.2745 137° Southeast  Level Estimated
Sun 05:06:00 -16.0348 -54.1817 137° Southeast  Level Estimated
Sun 05:07:00 -16.1298 -54.0888 137° Southeast  Level Estimated
Sun 05:08:00 -16.2247 -53.9958 137° Southeast  Level Estimated
Sun 05:09:00 -16.3195 -53.9028 137° Southeast  Level Estimated
Sun 05:10:00 -16.4143 -53.8096 137° Southeast  Level Estimated
Sun 05:11:00 -16.5091 -53.7164 137° Southeast  Level Estimated
Sun 05:12:00 -16.6038 -53.6231 137° Southeast  Level Estimated
Sun 05:13:00 -16.6985 -53.5296 137° Southeast  Level Estimated
Sun 05:14:00 -16.7932 -53.4361 137° Southeast  Level Estimated
Sun 05:15:00 -16.8878 -53.3425 137° Southeast  Level Estimated
Sun 05:16:00 -16.9823 -53.2488 137° Southeast  Level Estimated
Sun 05:17:00 -17.0769 -53.1550 137° Southeast  Level Estimated
Sun 05:18:00 -17.1713 -53.0611 136° Southeast  Level Estimated
Sun 05:19:00 -17.2658 -52.9671 136° Southeast  Level Estimated
Sun 05:20:00 -17.3601 -52.8731 136° Southeast  Level Estimated
Sun 05:21:00 -17.4545 -52.7789 136° Southeast  Level Estimated
Sun 05:22:00 -17.5488 -52.6846 136° Southeast  Level Estimated
Sun 05:23:00 -17.6430 -52.5902 136° Southeast  Level Estimated
Sun 05:24:00 -17.7373 -52.4957 136° Southeast  Level Estimated
Sun 05:25:00 -17.8314 -52.4012 136° Southeast  Level Estimated
Sun 05:26:00 -17.9256 -52.3065 136° Southeast  Level Estimated
Sun 05:27:00 -18.0196 -52.2117 136° Southeast  Level Estimated
Sun 05:28:00 -18.1138 -52.1167 136° Southeast  Level Estimated
Sun 05:29:00 -18.2080 -52.0215 136° Southeast  Level Estimated
Sun 05:30:00 -18.3021 -51.9263 136° Southeast  Level Estimated
Sun 05:31:00 -18.3961 -51.8310 136° Southeast  Level Estimated
Sun 05:32:00 -18.4901 -51.7355 136° Southeast  Level Estimated
Sun 05:33:00 -18.5841 -51.6399 136° Southeast  Level Estimated
Sun 05:33:44 -18.9200 -50.7580 136° Southeast 492 566 39,000  Level FlightAware ADS-B
Sun 05:34:00 -18.6780 -51.5443 136° Southeast  Level Estimated
Sun 05:34:25 -18.9750 -50.6960 133° Southeast 492 566 39,000  Level FlightAware ADS-B
Sun 05:35:24 -19.0780 -50.5860 135° Southeast 492 566 39,000  Level FlightAware ADS-B
Sun 05:36:07 -19.1460 -50.5110 134° Southeast 491 565 39,000  Level FlightAware ADS-B
Sun 05:36:48 -19.2110 -50.4400 134° Southeast 492 566 39,000  Level FlightAware ADS-B
Sun 05:37:28 -19.2750 -50.3700 134° Southeast 492 566 39,000  Level FlightAware ADS-B
Sun 05:38:12 -19.3450 -50.2930 134° Southeast 493 567 39,000  Level FlightAware ADS-B
Sun 05:38:52 -19.4070 -50.2240 134° Southeast 494 568 39,000  Level FlightAware ADS-B
Sun 05:39:37 -19.4790 -50.1460 134° Southeast 494 568 39,000  Level FlightAware ADS-B
Sun 05:40:17 -19.5430 -50.0750 134° Southeast 494 568 39,000  Level FlightAware ADS-B
Sun 05:41:01 -19.6130 -49.9980 134° Southeast 492 566 39,000  Level FlightAware ADS-B
Sun 05:41:39 -19.6730 -49.9320 134° Southeast 493 567 39,000  Level FlightAware ADS-B
Sun 05:42:23 -19.7430 -49.8560 134° Southeast 492 566 39,000  Level FlightAware ADS-B
Sun 05:43:03 -19.8070 -49.7860 134° Southeast 492 566 39,000  Level FlightAware ADS-B
Sun 05:43:47 -19.8770 -49.7100 134° Southeast 491 565 39,000  Level FlightAware ADS-B
Sun 05:44:29 -19.9420 -49.6380 134° Southeast 492 566 39,000  Level FlightAware ADS-B
Sun 05:45:09 -20.0070 -49.5680 135° Southeast 492 566 39,000  Level FlightAware ADS-B
Sun 05:45:53 -20.0770 -49.4910 134° Southeast 492 566 39,000  Level FlightAware ADS-B
Sun 05:46:32 -20.1370 -49.4240 134° Southeast 493 567 39,000  Level FlightAware ADS-B
Sun 05:47:15 -20.2070 -49.3470 134° Southeast 494 568 39,000  Level FlightAware ADS-B
Sun 05:48:01 -20.2800 -49.2670 134° Southeast 495 570 39,000  Level FlightAware ADS-B
Sun 05:48:40 -20.3410 -49.1990 134° Southeast 495 570 39,000  Level FlightAware ADS-B
Sun 05:49:25 -20.4140 -49.1190 134° Southeast 495 570 39,000  Level FlightAware ADS-B
Sun 05:50:05 -20.4770 -49.0490 134° Southeast 495 570 39,000  Level FlightAware ADS-B
Sun 05:50:45 -20.5410 -48.9770 134° Southeast 496 571 39,000  Level FlightAware ADS-B
Sun 05:51:29 -20.6110 -48.9000 134° Southeast 497 572 39,000  Level FlightAware ADS-B
Sun 05:52:11 -20.6770 -48.8260 134° Southeast 497 572 39,000  Level FlightAware ADS-B
Sun 05:52:55 -20.7480 -48.7470 134° Southeast 498 573 39,000  Level FlightAware ADS-B
Sun 05:53:35 -20.8120 -48.6760 134° Southeast 498 573 39,000  Level FlightAware ADS-B
Sun 05:54:19 -20.8810 -48.5980 133° Southeast 500 575 39,000  Level FlightAware ADS-B
Sun 05:54:59 -20.9450 -48.5260 134° Southeast 500 575 39,000  Level FlightAware ADS-B
Sun 05:55:43 -21.0140 -48.4490 134° Southeast 498 573 39,000  Level FlightAware ADS-B
Sun 05:56:19 -21.0700 -48.3850 133° Southeast 499 574 39,000  Level FlightAware ADS-B
Sun 05:57:06 -21.1470 -48.2990 134° Southeast 498 573 39,000  Level FlightAware ADS-B
Sun 05:57:46 -21.2100 -48.2270 133° Southeast 498 573 39,000  Level FlightAware ADS-B
Sun 05:58:30 -21.2790 -48.1490 134° Southeast 498 573 39,000  Level FlightAware ADS-B
Sun 05:59:08 -21.3400 -48.0800 134° Southeast 497 572 39,000  Level FlightAware ADS-B
Sun 05:59:52 -21.4090 -48.0010 133° Southeast 496 571 39,000  Level FlightAware ADS-B
Sun 06:00:36 -21.4780 -47.9230 134° Southeast 496 571 39,000  Level FlightAware ADS-B
Sun 06:01:16 -21.5410 -47.8510 133° Southeast 495 570 39,000  Level FlightAware ADS-B
Sun 06:01:58 -21.6090 -47.7750 134° Southeast 496 571 39,000  Level FlightAware ADS-B
Sun 06:02:40 -21.6750 -47.7000 133° Southeast 497 572 39,000  Level FlightAware ADS-B
Sun 06:03:22 -21.7400 -47.6260 133° Southeast 495 570 39,000 -488 Level FlightAware ADS-B
Sun 06:04:06 -21.8090 -47.5460 133° Southeast 485 558 38,300 -2,071 Descending FlightAware ADS-B
Sun 06:04:46 -21.8700 -47.4760 133° Southeast 490 564 36,100 -3,571 Descending FlightAware ADS-B
Sun 06:05:30 -21.9410 -47.3950 133° Southeast 506 582 33,300 -3,286 Descending FlightAware ADS-B
Sun 06:06:10 -22.0130 -47.3360 143° Southeast 489 563 31,500 -2,707 Descending FlightAware ADS-B
Sun 06:06:52 -22.0980 -47.2980 158° South 469 540 29,600 -2,791 Descending FlightAware ADS-B
Sun 06:07:36 -22.1860 -47.2610 159° South 449 517 27,500 -2,651 Descending FlightAware ADS-B
Sun 06:08:18 -22.2670 -47.2280 159° South 435 501 25,800 -1,976 Descending FlightAware ADS-B
Sun 06:08:58 -22.3420 -47.1970 159° South 418 481 24,800 -1,714 Descending FlightAware ADS-B
Sun 06:09:42 -22.4160 -47.1660 159° South 371 427 23,400 -2,143 Descending FlightAware ADS-B
Sun 06:10:22 -22.4790 -47.1390 158° South 358 412 21,800 -1,846 Descending FlightAware ADS-B
Sun 06:11:00 -22.5380 -47.1140 159° South 355 409 21,000 -1,385 Descending FlightAware ADS-B
Sun 06:11:40 -22.5970 -47.0890 159° South 347 399 20,000 -1,724 Descending FlightAware ADS-B
Sun 06:12:27 -22.6680 -47.0590 159° South 342 394 18,500 -1,677 Descending FlightAware ADS-B
Sun 06:13:13 -22.7330 -47.0320 159° South 338 389 17,400 -1,500 Descending FlightAware ADS-B
Sun 06:13:51 -22.7910 -47.0080 159° South 335 386 16,400 -1,500 Descending FlightAware ADS-B
Sun 06:14:33 -22.8510 -46.9830 159° South 332 382 15,400 -1,535 Descending FlightAware ADS-B
Sun 06:15:17 -22.9140 -46.9560 158° South 332 382 14,200 -1,744 Descending FlightAware ADS-B
Sun 06:15:59 -22.9740 -46.9310 159° South 315 362 12,900 -1,714 Descending FlightAware ADS-B
Sun 06:16:41 -23.0290 -46.9080 159° South 311 358 11,800 -1,683 Descending FlightAware ADS-B
Sun 06:17:21 -23.0830 -46.8850 159° South 305 351 10,600 -1,588 Descending FlightAware ADS-B
Sun 06:17:49 -23.1200 -46.8690 158° South 302 348 10,000 -1,138 Descending FlightAware ADS-B
Sun 06:18:19 -23.1590 -46.8530 159° South 278 320 9,500 -1,034 Descending FlightAware ADS-B
Sun 06:18:47 -23.1910 -46.8400 160° South 258 297 9,000 -857 Descending FlightAware ADS-B
Sun 06:19:15 -23.2200 -46.8270 158° South 231 266 8,700 -724 Descending FlightAware ADS-B
Sun 06:19:45 -23.2500 -46.8140 158° South 227 261 8,300 -667 Descending FlightAware ADS-B
Sun 06:20:09 -23.2740 -46.8050 161° South 226 260 8,100 -556 Descending FlightAware ADS-B
Sun 06:20:39 -23.3020 -46.7930 159° South 224 258 7,800 -621 Descending FlightAware ADS-B
Sun 06:21:07 -23.3300 -46.7810 159° South 220 253 7,500 -679 Descending FlightAware ADS-B
Sun 06:21:32 -23.3520 -46.7710 157° South 220 253 7,200 -667 Descending FlightAware ADS-B
Sun 06:22:01 -23.3790 -46.7560 153° Southeast 220 253 6,900 -842 Descending FlightAware ADS-B
Sun 06:22:29 -23.4010 -46.7360 140° Southeast 219 252 6,400 -955 Descending FlightAware ADS-B
Sun 06:22:45 -23.4130 -46.7250 140° Southeast 214 246 6,200 -1,091 Descending FlightAware ADS-B
Sun 06:23:13 -23.4340 -46.7050 139° Southeast 214 246 5,600 -1,241 Descending FlightAware ADS-B
Sun 06:23:43 -23.4530 -46.6810 131° Southeast 189 217 5,000 -778 Descending FlightAware ADS-B
Sun 06:24:07 -23.4610 -46.6630 116° Southeast 162 186 4,900 -450 Descending FlightAware ADS-B
Sun 06:24:23 -23.4660 -46.6510 114° Southeast 157 181 4,700 -545 Descending FlightAware ADS-B
Sun 06:24:51 -23.4740 -46.6310 114° Southeast 156 180 4,500 -474 Descending FlightAware ADS-B
Sun 06:25:01 -23.4750 -46.6250 100° East 156 180 4,400 -286 Descending FlightAware ADS-B
Sun 06:25:33 -23.4690 -46.6000 75° East 149 171 4,300 -500 Descending FlightAware ADS-B
Sun 06:26:01 -23.4640 -46.5800 75° East 138 159 3,900 -955 Descending FlightAware ADS-B
Sun 06:26:17 -23.4610 -46.5680 75° East 139 160 3,600 -750 Descending FlightAware ADS-B
Sun 06:26:41 -23.4570 -46.5530 74° East 136 157 3,400 -667 Descending FlightAware ADS-B
Sun 06:27:11 -23.4510 -46.5330 72° East 139 160 3,000 -682 Descending FlightAware ADS-B
Sun 06:27:25 -23.4490 -46.5240 76° East 140 161 2,900 -682 Descending FlightAware ADS-B
Sun 06:27:55 -23.4430 -46.5030 73° East 143 165 2,500 -800 Descending FlightAware ADS-B
Sun 06:28:33 -23.4360 -46.4780 73° East 120 138 -3,947 Descending FlightAware ADS-B
Sun 06:29:03 -23.4340 -46.4700 75° East 22 25  Level FlightAware ADS-B
Sun 06:30:39 -23.4290 -46.4680 20° North 9 10  Level FlightAware ADS-B

Login

Don't have an account? Register now (free) for customized features, flight alerts, and more!